Location: Pescara
(42.4670°N, 14.2170°E)
Time: 02:55:08
(UTC+02:00)

ISS - Pass Details

Date: 16 May 2021
Orbit: 417 x 422 km, 51.6° (Epoch: 14 June)

Event Time Altitude Azimuth Distance (km) Brightness Sun altitude
Rises 21:13:22 0° 225° (SW) 2,349 0.1 -9.3°
Reaches altitude 10° 21:15:28 10° 221° (SW) 1,490 -0.9 -9.6°
Maximum altitude 21:18:45 57° 142° (SE) 498 -3.7 -10.0°
Drops below altitude 10° 21:22:04 10° 63° (ENE) 1,502 -1.2 -10.5°
Sets 21:24:12 0° 59° (ENE) 2,370 -0.1 -10.8°
